Harlan, KY

4:45 AM EST on November 22, 2019 (GMT -0500)
Harlan

Weather History for KI35 - September, 2019

Change the Weather History Date:

Saturday, September 21, 2019

  Actual Average (KLOZ) Record (KLOZ)
Temperature  
Mean Temperature 72 °F -  
Max Temperature 85 °F 77 °F 93 °F (1955)
Min Temperature 60 °F 55 °F 35 °F (1956)
Cooling Degree Days 7    
Growing Degree Days 22 (Base 50)    
Moisture  
Dew Point 60 °F    
Average Humidity 75    
Maximum Humidity 100    
Minimum Humidity 39    
Precipitation  
Precipitation 0.00 in - - ()
Sea Level Pressure  
Sea Level Pressure 30.29 in    
Wind  
Wind Speed 1 mph ()    
Max Wind Speed 7 mph    
Max Gust Speed -    
Visibility 7.8 miles    
Events      
Averages and records for this station are not official NWS values.
T = Trace of Precipitation, MM = Missing Value Source: Averaged Metar Reports

Daily Weather History Graph

Daily Weather History Graph

Search for Another Location

Airport or City:

Astronomy

Sep. 21, 2019 Rise Set
Actual Time 7:20 AM EDT 7:32 PM EDT
Civil Twilight 6:54 AM EDT 7:58 PM EDT
Nautical Twilight 6:24 AM EDT 8:28 PM EDT
Astronomical Twilight 5:53 AM EDT 8:58 PM EDT
Moon No Moon Rise 2:15 PM EDT (9/21)
Length of Visible Light 13h 03m
Length of Day
12h 11m
Waning Gibbous, 55% of the Moon is Illuminated
Sep 21
Waning Gibbous
Sep 21
Last Quarter
Sep 28
New
Oct 5
First Quarter
Oct 13
Full

Hourly Weather History & Observations

Time (EDT) Temp. Heat Index Dew Point Humidity Pressure Visibility Wind Dir Wind Speed Gust Speed Precip Events Conditions
12:15 AM 63.5 °F - 62.4 °F 96% 30.30 in 10.0 mi Calm Calm - N/A   Clear
12:35 AM 63.3 °F - 62.4 °F 97% 30.30 in 10.0 mi Calm Calm - N/A   Clear
12:55 AM 62.8 °F - 62.1 °F 97% 30.30 in 7.0 mi Calm Calm - N/A   Clear
1:15 AM 62.8 °F - 62.1 °F 97% 30.30 in 10.0 mi Calm Calm - N/A   Clear
1:35 AM 62.6 °F - 61.9 °F 97% 30.30 in 7.0 mi Calm Calm - N/A   Clear
1:55 AM 61.9 °F - 61.5 °F 99% 30.30 in 7.0 mi Calm Calm - N/A   Clear
2:15 AM 61.7 °F - 61.2 °F 98% 30.30 in 7.0 mi Calm Calm - N/A   Clear
2:35 AM 61.7 °F - 61.2 °F 98% 30.30 in 7.0 mi Calm Calm - N/A   Clear
2:55 AM 61.2 °F - 60.8 °F 99% 30.30 in 7.0 mi Calm Calm - N/A   Clear
3:35 AM 61.0 °F - 60.8 °F 99% 30.30 in 7.0 mi Calm Calm - N/A   Clear
4:15 AM 61.2 °F - 60.8 °F 99% 30.30 in 7.0 mi Calm Calm - N/A   Overcast
4:35 AM 61.2 °F - 60.8 °F 99% 30.31 in 5.0 mi Calm Calm - N/A   Overcast
4:55 AM 61.0 °F - 60.8 °F 99% 30.31 in 5.0 mi Calm Calm - N/A   Overcast
5:15 AM 60.8 °F - 60.4 °F 99% 30.31 in 5.0 mi Calm Calm - N/A   Overcast
5:35 AM 60.8 °F - 60.8 °F 100% 30.31 in 1.0 mi Calm Calm - N/A   Overcast
5:55 AM 60.4 °F - 60.3 °F 99% 30.32 in 1.2 mi Calm Calm - N/A   Overcast
6:15 AM 60.6 °F - 60.4 °F 99% 30.33 in 0.5 mi Calm Calm - N/A   Overcast
6:35 AM 60.4 °F - 60.3 °F 99% 30.34 in 0.8 mi Calm Calm - N/A   Overcast
6:55 AM 60.3 °F - 60.3 °F 100% 30.35 in 0.5 mi Calm Calm - N/A   Overcast
7:35 AM 60.3 °F - 60.3 °F 100% 30.35 in 0.2 mi Calm Calm - N/A   Overcast
7:55 AM 60.4 °F - 60.4 °F 100% 30.35 in 0.2 mi Calm Calm - N/A   Overcast
8:15 AM 60.4 °F - 60.4 °F 100% 30.36 in 0.2 mi Calm Calm - N/A   Overcast
8:35 AM 60.6 °F - 60.4 °F 99% 30.36 in 0.5 mi Calm Calm - N/A   Overcast
8:55 AM 61.3 °F - 61.2 °F 99% 30.37 in 0.8 mi Calm Calm - N/A   Overcast
9:15 AM 61.3 °F - 60.8 °F 98% 30.37 in 1.5 mi Calm Calm - N/A   Overcast
9:35 AM 61.9 °F - 61.2 °F 97% 30.37 in 4.0 mi Calm Calm - N/A   Overcast
9:55 AM 63.9 °F - 62.1 °F 94% 30.37 in 10.0 mi Calm Calm - N/A   Scattered Clouds
10:15 AM 66.4 °F - 61.9 °F 85% 30.36 in 10.0 mi Calm Calm - N/A   Clear
10:35 AM 69.4 °F - 63.0 °F 80% 30.36 in 10.0 mi Calm Calm - N/A   Clear
10:55 AM 72.9 °F - 63.5 °F 72% 30.36 in 10.0 mi Calm Calm - N/A   Clear
11:15 AM 74.5 °F - 63.9 °F 69% 30.35 in 10.0 mi Calm Calm - N/A   Clear
11:35 AM 76.3 °F - 62.8 °F 63% 30.35 in 10.0 mi SW 3.5 mph - N/A   Clear
11:55 AM 77.0 °F - 61.0 °F 58% 30.35 in 10.0 mi Calm Calm - N/A   Clear
12:15 PM 79.0 °F - 59.4 °F 51% 30.34 in 10.0 mi West 4.6 mph - N/A   Clear
12:35 PM 79.7 °F - 57.2 °F 46% 30.34 in 10.0 mi WSW 4.6 mph - N/A   Clear
12:55 PM 80.6 °F 80.8 °F 57.6 °F 45% 30.33 in 10.0 mi SSW 4.6 mph - N/A   Clear
1:15 PM 80.8 °F 81.1 °F 58.5 °F 46% 30.32 in 10.0 mi Calm Calm - N/A   Clear
1:35 PM 82.4 °F 82.6 °F 59.5 °F 46% 30.31 in 10.0 mi Calm Calm - N/A   Clear
1:55 PM 82.9 °F 83.0 °F 59.5 °F 45% 30.29 in 10.0 mi SSW 4.6 mph - N/A   Clear
2:15 PM 83.3 °F 83.2 °F 59.5 °F 44% 30.29 in 10.0 mi SW 6.9 mph - N/A   Clear
2:35 PM 82.6 °F 82.6 °F 59.2 °F 45% 30.29 in 10.0 mi WSW 5.8 mph - N/A   Clear
2:55 PM 83.7 °F 83.6 °F 59.5 °F 44% 30.28 in 10.0 mi West 4.6 mph - N/A   Clear
3:15 PM 84.2 °F 84.0 °F 59.2 °F 43% 30.27 in 10.0 mi WSW 5.8 mph - N/A   Clear
3:35 PM 84.7 °F 84.6 °F 59.7 °F 43% 30.26 in 10.0 mi SSW 4.6 mph - N/A   Clear
3:55 PM 84.9 °F 84.4 °F 59.0 °F 41% 30.25 in 10.0 mi Calm Calm - N/A   Clear
4:15 PM 83.3 °F 83.2 °F 59.5 °F 44% 30.24 in 10.0 mi Calm Calm - N/A   Clear
4:35 PM 82.2 °F 82.3 °F 58.6 °F 45% 30.24 in 10.0 mi Calm Calm - N/A   Clear
4:55 PM 84.2 °F 84.0 °F 59.2 °F 43% 30.24 in 10.0 mi SSE 3.5 mph - N/A   Clear
5:15 PM 84.4 °F 83.5 °F 57.0 °F 39% 30.23 in 10.0 mi SSE 3.5 mph - N/A   Clear
5:35 PM 83.8 °F 83.3 °F 57.7 °F 41% 30.23 in 10.0 mi Calm Calm - N/A   Scattered Clouds
5:55 PM 83.7 °F 82.8 °F 56.3 °F 39% 30.22 in 10.0 mi SSW 3.5 mph - N/A   Clear
6:15 PM 83.3 °F 82.5 °F 56.1 °F 39% 30.22 in 10.0 mi Calm Calm - N/A   Clear
6:55 PM 82.2 °F 82.0 °F 57.6 °F 43% 30.22 in 10.0 mi Calm Calm - N/A   Clear
7:15 PM 80.8 °F 81.1 °F 58.5 °F 46% 30.22 in 10.0 mi West 3.5 mph - N/A   Clear
7:35 PM 77.5 °F - 59.2 °F 53% 30.22 in 10.0 mi Calm Calm - N/A   Clear
7:55 PM 75.6 °F - 59.4 °F 57% 30.23 in 10.0 mi Calm Calm - N/A   Clear
8:15 PM 72.9 °F - 59.9 °F 64% 30.23 in 10.0 mi Calm Calm - N/A   Clear
8:35 PM 72.3 °F - 59.9 °F 65% 30.24 in 10.0 mi Calm Calm - N/A   Clear
8:55 PM 69.8 °F - 61.0 °F 73% 30.24 in 10.0 mi Calm Calm - N/A   Clear
9:15 PM 69.8 °F - 60.6 °F 73% 30.25 in 10.0 mi Calm Calm - N/A   Clear
9:35 PM 67.6 °F - 61.0 °F 79% 30.26 in 10.0 mi Calm Calm - N/A   Clear
10:00 PM 67.1 °F - 61.2 °F 81% 30.26 in 10.0 mi Calm Calm - N/A   Clear
10:15 PM 66.4 °F - 61.2 °F 83% 30.26 in 10.0 mi Calm Calm - N/A   Clear
10:35 PM 65.7 °F - 61.3 °F 86% 30.26 in 10.0 mi Calm Calm - N/A   Clear
10:55 PM 65.5 °F - 61.3 °F 86% 30.27 in 10.0 mi Calm Calm - N/A   Clear
11:15 PM 64.4 °F - 61.3 °F 90% 30.26 in 10.0 mi Calm Calm - N/A   Clear
11:35 PM 64.0 °F - 61.3 °F 91% 30.26 in 10.0 mi Calm Calm - N/A   Clear
11:55 PM 63.3 °F - 61.2 °F 93% 30.27 in 10.0 mi Calm Calm - N/A   Clear